When you browse on this site, cookies collect data to enhance your experience and personalize the content and advertising you see.
Visit our Privacy Policy to learn more. By continuing to use the site, you agree to this use of cookies and data.

Hourly Weather La Massana

Today, 29 September, Tuesday

Time Temperature Precipitation Wind Pressure Humidity
00:00 +5°C° 0 mm 1 mps 611 mmHg 81%
01:00 +5°C° 0 mm 1 mps 610 mmHg 80%
02:00 +5°C° 0 mm 1 mps 610 mmHg 79%
03:00 +4°C° 0 mm 1 mps 610 mmHg 78%
04:00 +5°C° 0 mm 1 mps 610 mmHg 74%
05:00 +5°C° 0 mm 1 mps 610 mmHg 70%
06:00 +5°C° 0 mm 1 mps 610 mmHg 67%
07:00 +7°C° 0 mm 1 mps 612 mmHg 63%
08:00 +9°C° 0 mm 0 mps 613 mmHg 60%
09:00 +11°C° 0 mm 0 mps 614 mmHg 56%
10:00 +13°C° 0 mm 1 mps 614 mmHg 53%
11:00 +15°C° 0 mm 1 mps 615 mmHg 50%
12:00 +16°C° 0 mm 1 mps 615 mmHg 47%
13:00 +15°C° 0 mm 1 mps 615 mmHg 50%
14:00 +15°C° 0 mm 1 mps 614 mmHg 52%
15:00 +15°C° 0 mm 1 mps 613 mmHg 54%
16:00 +12°C° 0 mm 1 mps 612 mmHg 63%
17:00 +10°C° 0 mm 1 mps 611 mmHg 72%
18:00 +8°C° 0 mm 1 mps 610 mmHg 81%
19:00 +8°C° 0 mm 1 mps 610 mmHg 80%
20:00 +7°C° 0 mm 1 mps 610 mmHg 80%
21:00 +7°C° 0 mm 1 mps 610 mmHg 79%
22:00 +7°C° 0 mm 1 mps 610 mmHg 78%
23:00 +6°C° 0 mm 1 mps 610 mmHg 76%

Tomorrow, 30 September, Wednesday

Time Temperature Precipitation Wind Pressure Humidity
00:00 +6°C° 0 mm 1 mps 610 mmHg 75%
01:00 +6°C° 0 mm 1 mps 609 mmHg 73%
02:00 +6°C° 0 mm 1 mps 609 mmHg 71%
03:00 +6°C° 0 mm 1 mps 609 mmHg 69%
04:00 +6°C° 0 mm 1 mps 609 mmHg 69%
05:00 +6°C° 0 mm 1 mps 609 mmHg 69%
06:00 +6°C° 0 mm 1 mps 609 mmHg 69%
07:00 +9°C° 0 mm 1 mps 610 mmHg 63%
08:00 +12°C° 0 mm 1 mps 611 mmHg 57%
09:00 +14°C° 0 mm 1 mps 613 mmHg 51%
10:00 +15°C° 0 mm 1 mps 613 mmHg 47%
11:00 +16°C° 0 mm 1 mps 613 mmHg 44%
12:00 +17°C° 0 mm 2 mps 613 mmHg 40%
13:00 +17°C° 0 mm 2 mps 612 mmHg 41%
14:00 +16°C° 0 mm 2 mps 612 mmHg 42%
15:00 +16°C° 0 mm 2 mps 611 mmHg 43%
16:00 +13°C° 0 mm 1 mps 610 mmHg 54%
17:00 +11°C° 0 mm 1 mps 609 mmHg 64%
18:00 +7°C° 0 mm 0 mps 608 mmHg 74%
19:00 +7°C° 0 mm 0 mps 608 mmHg 72%
20:00 +7°C° 0 mm 1 mps 608 mmHg 71%
21:00 +7°C° 0 mm 1 mps 608 mmHg 69%
22:00 +7°C° 0 mm 1 mps 607 mmHg 68%
23:00 +7°C° 0 mm 1 mps 607 mmHg 68%

Day after tomorrow, 1 October, Thursday

Time Temperature Precipitation Wind Pressure Humidity
00:00 +7°C° 0 mm 1 mps 606 mmHg 67%
01:00 +7°C° 0 mm 1 mps 606 mmHg 66%
02:00 +7°C° 0 mm 1 mps 606 mmHg 64%
03:00 +6°C° 0 mm 2 mps 605 mmHg 63%
04:00 +7°C° 0 mm 1 mps 605 mmHg 64%
05:00 +7°C° 0 mm 1 mps 605 mmHg 65%
06:00 +6°C° 0 mm 1 mps 605 mmHg 66%
07:00 +8°C° 0 mm 1 mps 605 mmHg 66%
08:00 +9°C° 0 mm 1 mps 606 mmHg 65%
09:00 +10°C° 0 mm 1 mps 607 mmHg 64%
10:00 +10°C° 0.3 mm 1 mps 606 mmHg 69%
11:00 +10°C° 0.3 mm 1 mps 606 mmHg 73%
12:00 +8°C° 0.3 mm 2 mps 606 mmHg 78%
13:00 +8°C° 0.1 mm 2 mps 606 mmHg 77%
14:00 +9°C° 0.1 mm 2 mps 606 mmHg 77%
15:00 +9°C° 0.1 mm 2 mps 605 mmHg 76%
16:00 +8°C° 0.1 mm 2 mps 605 mmHg 80%
17:00 +8°C° 0.1 mm 1 mps 604 mmHg 84%
18:00 +7°C° 0.1 mm 1 mps 603 mmHg 87%
19:00 +6°C° 0 mm 1 mps 603 mmHg 87%
20:00 +6°C° 0 mm 1 mps 603 mmHg 87%
21:00 +4°C° 0 mm 2 mps 603 mmHg 87%
22:00 +4°C° 0 mm 2 mps 602 mmHg 87%
23:00 +3°C° 0 mm 3 mps 601 mmHg 86%

2 October, Friday

Time Temperature Precipitation Wind Pressure Humidity
00:00 +3°C° 0 mm 3 mps 600 mmHg 85%
01:00 +4°C° 0 mm 3 mps 599 mmHg 87%
02:00 +4°C° 0 mm 3 mps 598 mmHg 89%
03:00 +4°C° 0 mm 4 mps 597 mmHg 91%
04:00 +4°C° 0.3 mm 3 mps 596 mmHg 93%
05:00 +4°C° 0.3 mm 3 mps 596 mmHg 94%
06:00 +4°C° 0.3 mm 3 mps 595 mmHg 95%
07:00 +4°C° 1.9 mm 3 mps 595 mmHg 95%
08:00 +4°C° 1.9 mm 3 mps 595 mmHg 95%
09:00 +4°C° 1.9 mm 3 mps 595 mmHg 95%
10:00 +4°C° 1.7 mm 3 mps 594 mmHg 96%
11:00 +4°C° 1.7 mm 2 mps 594 mmHg 96%
12:00 +3°C° 1.7 mm 2 mps 594 mmHg 97%
13:00 +3°C° 1.8 mm 2 mps 594 mmHg 96%
14:00 +2°C° 1.8 mm 2 mps 593 mmHg 95%
15:00 +2°C° 1.8 mm 1 mps 593 mmHg 94%
16:00 +1°C° 0.7 mm 1 mps 593 mmHg 95%
17:00 +1°C° 0.7 mm 1 mps 593 mmHg 95%
18:00 0°C° 0.7 mm 1 mps 593 mmHg 96%
19:00 -2°C° 0.1 mm 2 mps 593 mmHg 95%
20:00 -3°C° 0.1 mm 2 mps 593 mmHg 95%
21:00 -4°C° 0.1 mm 3 mps 593 mmHg 94%
22:00 -4°C° 0 mm 3 mps 593 mmHg 93%
23:00 -4°C° 0 mm 3 mps 593 mmHg 93%

3 October, Saturday

Time Temperature Precipitation Wind Pressure Humidity
00:00 -4°C° 0 mm 3 mps 592 mmHg 92%
01:00 -4°C° 0.1 mm 3 mps 592 mmHg 92%
02:00 -4°C° 0.1 mm 3 mps 591 mmHg 93%
03:00 -5°C° 0.1 mm 3 mps 591 mmHg 93%
04:00 -4°C° 0.3 mm 4 mps 591 mmHg 93%
05:00 -4°C° 0.3 mm 4 mps 592 mmHg 94%
06:00 -3°C° 0.3 mm 4 mps 592 mmHg 94%
07:00 -1°C° 0.5 mm 3 mps 593 mmHg 93%
08:00 0°C° 0.5 mm 3 mps 594 mmHg 93%
09:00 +1°C° 0.5 mm 3 mps 595 mmHg 92%
10:00 +1°C° 0.1 mm 3 mps 595 mmHg 90%
11:00 +2°C° 0.1 mm 3 mps 595 mmHg 87%
12:00 +2°C° 0.1 mm 3 mps 595 mmHg 85%
13:00 +2°C° 1 mm 3 mps 595 mmHg 89%
14:00 0°C° 1 mm 4 mps 594 mmHg 92%
15:00 -1°C° 1 mm 4 mps 594 mmHg 96%
16:00 0°C° 1.1 mm 3 mps 594 mmHg 97%
17:00 0°C° 1.1 mm 3 mps 595 mmHg 97%
18:00 +1°C° 1.1 mm 2 mps 595 mmHg 98%
19:00 -1°C° 0.2 mm 2 mps 596 mmHg 97%
20:00 -1°C° 0.2 mm 2 mps 596 mmHg 96%
21:00 -2°C° 0.2 mm 2 mps 597 mmHg 95%
22:00 -2°C° 0.1 mm 2 mps 598 mmHg 94%
23:00 -2°C° 0.1 mm 2 mps 598 mmHg 94%

4 October, Sunday

Time Temperature Precipitation Wind Pressure Humidity
00:00 0°C° 0.1 mm 1 mps 598 mmHg 93%
01:00 0°C° 0.3 mm 1 mps 599 mmHg 94%
02:00 +1°C° 0.3 mm 1 mps 600 mmHg 95%
03:00 +2°C° 0.3 mm 1 mps 600 mmHg 96%
04:00 +2°C° 0 mm 1 mps 600 mmHg 96%
05:00 +2°C° 0 mm 1 mps 601 mmHg 96%
06:00 +2°C° 0 mm 1 mps 601 mmHg 95%
07:00 +3°C° 0 mm 1 mps 602 mmHg 93%
08:00 +4°C° 0 mm 1 mps 602 mmHg 91%
09:00 +5°C° 0 mm 1 mps 603 mmHg 89%
10:00 +6°C° 0 mm 1 mps 603 mmHg 86%
11:00 +7°C° 0 mm 1 mps 604 mmHg 83%
12:00 +7°C° 0 mm 2 mps 604 mmHg 80%
13:00 +6°C° 0.2 mm 2 mps 604 mmHg 82%
14:00 +5°C° 0.2 mm 2 mps 603 mmHg 85%
15:00 +5°C° 0.2 mm 2 mps 603 mmHg 88%
16:00 +4°C° 0.3 mm 2 mps 603 mmHg 90%
17:00 +4°C° 0.3 mm 1 mps 603 mmHg 92%
18:00 +3°C° 0.3 mm 1 mps 603 mmHg 95%
19:00 +2°C° 0.4 mm 1 mps 603 mmHg 95%
20:00 +1°C° 0.4 mm 2 mps 603 mmHg 95%
21:00 -1°C° 0.4 mm 2 mps 603 mmHg 95%
22:00 -1°C° 0.4 mm 2 mps 603 mmHg 95%
23:00 -1°C° 0.4 mm 2 mps 604 mmHg 95%
Show more